Location: *
(23.5860°S, 65.4036°W)
Time: 08:08:44
(UTC+00:00)

Cosmos 540 Rocket - Pass Details

Date: 25 August 2019
Orbit: 740 x 754 km, 74.1° (Epoch: 15 September)

Event Time Altitude Azimuth Distance (km) Brightness Sun altitude
Rises 23:06:03 0° 333° (NNW) 3,190 7.2 -13.8°
Reaches altitude 10° 23:08:28 10° 328° (NNW) 2,273 6.5 -14.4°
Maximum altitude 23:13:26 48° 254° (WSW) 985 4.5 -15.5°
Drops below altitude 10° 23:18:27 10° 179° (S) 2,292 5.9 -16.7°
Sets 23:20:55 0° 173° (S) 3,221 6.6 -17.2°
